Flag for Germany Weather past 2 weeks in Forchheim, Bavaria, Germany

Now
32 °F

Light snow. Passing clouds.


Feels Like: 32 °F
Forecast: 31 / 35 °F
Wind: 2 mph from South

Location: Bamberg

Current Time: Feb 1, 2015 at 10:42:47 PM

Latest Report: Feb 1, 2015 at 10:00 PM


Visibility: 4 mi

Pressure: 29.41 "Hg

Humidity: 93%

Dew point: 31 °F

Location of ForchheimLocation

Historic Weather in Forchheim — Graph

°F

Forchheim temperature yesterday

Maximum temperature yesterday: 35 °F (at 2:00 PM)
Minimum temperature yesterday: 27 °F (at 2:00 AM)
Average temperature yesterday: 32 °F

Past Weeks' High & Low Weather Summary

 TemperatureHumidityPressure
High40 °F (Jan 29, 2:00 PM)100% (Jan 18, 1:00 AM)30.41 "Hg (Jan 18, 1:00 AM)
Low26 °F (Feb 1, 5:00 AM)64% (Jan 29, 2:00 PM)28.73 "Hg (Jan 30, 3:00 AM)
Average34 °F88%29.83 "Hg
* Reported Jan 17 9:00 PM — Feb 1 9:00 PM, Forchheim, Weather by CustomWeather, © 2014

Note: Actual official high and low records may vary slightly from our data, if they occured in-between our weather recording intervals... More about our weather records

Advertising

Forchheim weather history for previous 24 hours

 ConditionsComfort  
Time TempWeatherWind HumidityBarometerVisibility
9:00 PM
Feb 1
32 °FPassing clouds.2 mph94%29.38 "Hg5 mi
8:00 PM32 °FOvercast.1 mph95%29.38 "Hg4 mi
7:00 PM32 °FOvercast.1 mph95%29.38 "Hg6 mi
6:00 PM31 °FOvercast.1 mph93%29.35 "Hg9 mi
5:00 PM33 °FScattered clouds.1 mph85%29.35 "Hg11 mi
4:00 PM35 °FOvercast.2 mph81%29.32 "Hg16 mi
3:00 PM35 °FOvercast.2 mph82%29.29 "Hg19 mi
2:00 PM35 °FOvercast.2 mph85%29.29 "Hg11 mi
1:00 PM34 °FSnow flurries. Overcast.2 mph87%29.26 "Hg6 mi
12:00 PM33 °FSnow flurries. Overcast.2 mph85%29.26 "Hg8 mi
11:00 AM33 °FPartly sunny.2 mph85%29.26 "Hg9 mi
10:00 AM32 °FOvercast.2 mph89%29.23 "Hg8 mi
9:00 AM31 °FLight snow. Overcast.2 mph92%29.23 "Hg6 mi
8:00 AM30 °FOvercast.2 mph94%29.21 "Hg5 mi
7:00 AM29 °FOvercast.1 mph96%29.21 "Hg3 mi
6:00 AM28 °FOvercast.2 mph99%29.21 "Hg2 mi
5:00 AM26 °FClear.2 mph96%29.21 "Hg2 mi
4:00 AM27 °FClear.1 mph100%29.21 "Hg2 mi
3:00 AM31 °FFog.No wind96%29.18 "Hg3 mi
2:00 AM31 °FFog.1 mph96%29.18 "Hg2 mi
1:00 AM33 °FPassing clouds.2 mph95%29.18 "Hg4 mi
12:00 AM32 °FLight snow. Passing clouds.2 mph96%29.18 "Hg2 mi
11:00 PM
Jan 31
32 °FLight snow. Low clouds.2 mph96%29.18 "Hg1 mi
10:00 PM32 °FLight snow. Overcast.1 mph92%29.18 "Hg1 mi
Weather by CustomWeather, © 2014

See weather overviewHow to use our weather pages